This demonstration page uses our WeatherBlox Daily Observations layout. Learn more.

Left ArrowRight Arrow

Hourly Observations for June 8, 2019

Temp ( °F °C ) Dew Point ( °F °C ) Humidity (%) Winds ( mph kmh ) Pressure ( in mb ) Visibility ( mi km ) Precip ( " mm )
12:51 am 00:51 Clear 78 25.6 38 3.3 24 24 NW 9 15 29.71 1006 10 16 0.00 0.00
1:51 am 01:51 Clear 78 25.6 36 2.2 22 22 NW 12 19 29.71 1006 10 16 0.00 0.00
2:51 am 02:51 Mostly Clear 77 25 34 1.1 21 21 NW 12 19 29.72 1006 10 16 0.00 0.00
3:51 am 03:51 Clear 73 22.8 35 1.7 25 25 NNW 8 13 29.73 1007 10 16 0.00 0.00
4:51 am 04:51 Clear 71 21.7 34 1.1 26 26 NE 3 6 29.75 1008 10 16 0.00 0.00
5:51 am 05:51 Sunny 72 22.2 34 1.1 25 25 Calm 29.78 1008 10 16 0.00 0.00
6:51 am 06:51 Sunny 75 23.9 34 1.1 22 22 S 5 7 29.79 1009 10 16 0.00 0.00
7:51 am 07:51 Sunny 80 26.7 34 1.1 19 19 Calm 29.80 1009 10 16 0.00 0.00
8:51 am 08:51 Sunny 83 28.3 34 1.1 17 17 Calm 29.80 1009 10 16 0.00 0.00
9:51 am 09:51 Sunny 87 30.6 27 -2.8 11 11 Calm 29.80 1009 10 16 0.00 0.00
10:51 am 10:51 Sunny 90 32.2 23 -5 9 9 Calm 29.80 1009 10 16 0.00 0.00
11:51 am 11:51 Sunny 92 33.3 20 -6.7 7 7 undefined N/A 29.79 1009 10 16 0.00 0.00
12:51 pm 12:51 Sunny 92 33.3 20 -6.7 7 7 undefined N/A 29.78 1009 10 16 0.00 0.00
1:51 pm 13:51 Sunny 95 35 16 -8.9 5 5 W 10 17 29.75 1008 10 16 0.00 0.00
2:51 pm 14:51 Sunny 95 35 13 -10.6 5 5 undefined N/A 29.74 1007 10 16 0.00 0.00
3:51 pm 15:51 Sunny 98 36.7 15 -9.4 5 5 WNW 16 26 29.72 1007 10 16 0.00 0.00
4:51 pm 16:51 Sunny 97 36.1 13 -10.6 4 4 NNW 14 22 29.72 1006 10 16 0.00 0.00
5:51 pm 17:51 Sunny 96 35.6 16 -8.9 5 5 NW 15 24 29.72 1006 10 16 0.00 0.00
6:51 pm 18:51 Sunny 92 33.3 18 -7.8 6 6 NW 20 31 29.74 1007 10 16 0.00 0.00
7:51 pm 19:51 Clear 87 30.6 18 -7.8 8 8 NW 14 22 29.76 1008 10 16 0.00 0.00
8:51 pm 20:51 Clear 82 27.8 18 -7.8 9 9 NW 8 13 29.79 1009 10 16 0.00 0.00
9:51 pm 21:51 Clear 78 25.6 20 -6.7 11 11 WNW 10 17 29.81 1010 10 16 0.00 0.00
10:51 pm 22:51 Clear 77 25 20 -6.7 12 12 WNW 10 17 29.81 1009 10 16 0.00 0.00
11:51 pm 23:51 Clear 76 24.4 19 -7.2 12 12 WNW 12 19 29.81 1009 10 16 0.00 0.00

Powered by AerisWeather